Terug naar catalogus

NOAA 16 DEB

ActiefPO
NORAD 41406·DEBRIS·🇺🇸 United States

Gelanceerd Sep 21, 2000 vanaf Vandenberg Space Force Base

Loading…

Volgende Passages (komende 24 uur)

TLE

VersSource: Space-Track

Epoch: Sep 13, 2026, 02:05 UTC

1 41406U 00055KK  26256.08682217  .00004603  00000-0  10043-2 0  9993
2 41406  98.9480 117.8192 0028095 134.0745 226.2771 14.58154864551624

Volg NOAA 16 DEB in realtime met AllMySat

Download on the App Store